SHIYAN 30 01

Satellite information

Favourite Embed

Satellite Type and Status

PAYLOADIN ORBIT

Key statistics

Satellite SHIYAN 30 01 at a glance.

Uptime

24

Days in orbit

Revolutions

≈ 14.9

Per day

Orbit

LEO

Low Earth Orbit

Inclination

35.0

Latest

Satellite identification and parameters

Extended collection of information and parameters for SHIYAN 30 01.

Object identification

Identified? True

Debris? False

Object name: SHIYAN 30 01

International designator: 2025-222A

Object number (NORAD): 65851

Object ID (CCSDS): 65851

Country: PEOPLES REPUBLIC OF CHINA (PRC)

Current information (Y/N): Y

Orbital parameters

Period: 96.453 minutes

Inclination: 34.9885 deg

SMA: 6966.883 km

Apoapsis: 592.568 km

Periapsis: 584.929 km

RAAN: 245.8753 deg

Eccentricy: 0.00054823

Argument of periapsis: 180.1229 deg

Mean anomaly: 179.9476 deg

Mean motion: 14.92948995 rev/day

Mean motion (dot): 0.00004373 rev/day2

B* drag term: 0.00041561419 1/REarth

Two-line elements (TLE)

Creation date: Oct. 23, 2025, 2:46 a.m.

Reference frame: TEME

Reference center: EARTH

Epoch: Oct. 22, 2025, 9:54 p.m. UTC

TLE line 0: 0 SHIYAN 30 01

TLE line 1: 1 65851U 25222A 25295.91258807 .00004373 00000-0 41561-3 0 9998

TLE line 2: 2 65851 34.9885 245.8753 0005482 180.1229 179.9476 14.92948995 3567

Live tracking on map

Real-time ground track for satellite SHIYAN 30 01.

In-orbit conjunctions

There are no conjunctions computed for SHIYAN 30 01, at the moment. Check back to stay up to date, as we update our databases every day.

Go to all conjunctions

Associated space launch

A pair of Chinese satellites reported to be for "Earth observation technological testing and validation" purposes. Actual usage not known.

SHIYAN 30 01 was lifted into orbit during the mission ‘Long March 2D | Shiyan 30 01-02’, on board a Long March 2D space rocket.

The launch took place on Sept. 29, 2025, 3 a.m. from Launch Complex 3 (LC-3/LA-1).

For more information about the launch, click the button.

Launch to space Long March 2D | Shiyan 30 01-02
Long March 2D | Shiyan 30 01-02

Agency: N/A

Status: Launch Successful

Launch date: Sept. 29, 2025, 3 a.m. UTC

Rocket: Long March 2D

Launch pad: Launch Complex 3 (LC-3/LA-1)

Location: Xichang Satellite Launch Center, People's Republic of China

...

Latest news about this satellite

News about space launch
China sends experimental Shiyan-30 satellites into orbit as launch cadence intensifies

A Long March 2D rocket sent a new set of experimental satellites into orbit late Sunday, capping an intense month of Chinese launch activities. The post China sends experimental Shiyan-30 satellites into orbit as launch cadence intensifies appeared first...


Newsletter sign-up

Weekly statistics, charts and insights to help you stay on top of the space industry.